| time (UTC) | temp F | wind direction | speed knots | gust knots | rain 1hr in | rain 24hr in | rain mn in | humidity % | barometer mb |
| 20260510130929 | 76 | 138 | 1.7 | 3.5 | 0.00 | 0.00 | 0.00 | 98 | 1011.7 |
| 20260510130428 | 75 | 88 | 1.7 | 3.5 | 0.00 | 0.00 | 0.00 | 98 | 1011.7 |
| 20260510125932 | 74 | 86 | 0.9 | 2.6 | 0.00 | 0.00 | 0.00 | 98 | 1011.6 |
| 20260510125429 | 73 | 71 | 0.9 | 2.6 | 0.00 | 0.00 | 0.00 | 98 | 1011.5 |
| 20260510124934 | 73 | 33 | 0.9 | 1.7 | 0.00 | 0.00 | 0.00 | 98 | 1011.5 |
| 20260510124432 | 72 | 33 | 0.9 | 1.7 | 0.00 | 0.00 | 0.00 | 97 | 1011.5 |
| 20260510123930 | 72 | 33 | 0.9 | 1.7 | 0.00 | 0.00 | 0.00 | 97 | 1011.3 |
| 20260510123429 | 72 | 37 | 0.0 | 0.9 | 0.00 | 0.00 | 0.00 | 97 | 1011.3 |
| 20260510122929 | 71 | 37 | 0.0 | 0.0 | 0.00 | 0.00 | 0.00 | 97 | 1011.2 |
| 20260510122429 | 71 | 37 | 0.0 | 0.9 | 0.00 | 0.00 | 0.00 | 97 | 1011.1 |
| 20260510121929 | 71 | 37 | 0.0 | 0.9 | 0.00 | 0.00 | 0.00 | 97 | 1011.1 |
| 20260510121429 | 71 | 37 | 0.0 | 0.9 | 0.00 | 0.00 | 0.00 | 97 | 1011.1 |
| 20260510120930 | 71 | 37 | 0.0 | 0.9 | 0.00 | 0.00 | 0.00 | 97 | 1011.0 |
| 20260510120428 | 71 | 37 | 0.0 | 1.7 | 0.00 | 0.00 | 0.00 | 97 | 1011.0 |
| 20260510115929 | 71 | 37 | 0.0 | 1.7 | 0.00 | 0.00 | 0.00 | 97 | 1011.1 |
| 20260510115429 | 71 | 37 | 0.0 | 0.0 | 0.00 | 0.00 | 0.00 | 97 | 1011.0 |
| 20260510114929 | 71 | 37 | 0.0 | 0.9 | 0.00 | 0.00 | 0.00 | 97 | 1011.0 |
| 20260510114429 | 71 | 37 | 0.9 | 1.7 | 0.00 | 0.00 | 0.00 | 97 | 1010.9 |
| 20260510113929 | 71 | 37 | 0.9 | 1.7 | 0.00 | 0.00 | 0.00 | 97 | 1010.9 |
| 20260510113428 | 72 | 37 | 0.9 | 1.7 | 0.00 | 0.00 | 0.00 | 97 | 1010.9 |
| 20260510112921 | 72 | 37 | 0.9 | 1.7 | 0.00 | 0.00 | 0.00 | 97 | 1010.7 |
| 20260510112416 | 72 | 113 | 0.9 | 1.7 | 0.00 | 0.00 | 0.00 | 97 | 1010.8 |
| 20260510111910 | 73 | 127 | 1.7 | 2.6 | 0.00 | 0.00 | 0.00 | 97 | 1010.7 |
| 20260510111408 | 73 | 140 | 1.7 | 3.5 | 0.00 | 0.00 | 0.00 | 97 | 1010.5 |
| 20260510110908 | 73 | 174 | 1.7 | 3.5 | 0.00 | 0.00 | 0.00 | 97 | 1010.4 |
| 20260510110406 | 73 | 156 | 1.7 | 3.5 | 0.00 | 0.00 | 0.00 | 97 | 1010.5 |
| 20260510105906 | 73 | 152 | 2.6 | 4.3 | 0.00 | 0.00 | 0.00 | 97 | 1010.4 |
| 20260510105406 | 73 | 175 | 2.6 | 4.3 | 0.00 | 0.00 | 0.00 | 97 | 1010.4 |
| 20260510105133 | 73 | 146 | 1.7 | 3.5 | 0.00 | 0.00 | 0.00 | 97 | 1010.4 |
| 20260510104402 | 73 | 178 | 1.7 | 3.5 | 0.00 | 0.00 | 0.00 | 97 | 1010.4 |
| 20260510103901 | 73 | 138 | 2.6 | 5.2 | 0.00 | 0.00 | 0.00 | 97 | 1010.3 |
| 20260510103401 | 72 | 173 | 2.6 | 5.2 | 0.00 | 0.00 | 0.00 | 97 | 1010.4 |
| 20260510102901 | 72 | 142 | 2.6 | 5.2 | 0.00 | 0.00 | 0.00 | 97 | 1010.3 |
| 20260510102405 | 72 | 145 | 2.6 | 6.1 | 0.00 | 0.00 | 0.00 | 97 | 1010.3 |
| 20260510102132 | 72 | 159 | 3.5 | 6.1 | 0.00 | 0.00 | 0.00 | 97 | 1010.2 |
| 20260510101630 | 72 | 168 | 2.6 | 5.2 | 0.00 | 0.00 | 0.00 | 97 | 1010.3 |
| 20260510100900 | 71 | 155 | 2.6 | 4.3 | 0.00 | 0.00 | 0.00 | 97 | 1010.3 |
| 20260510100401 | 71 | 156 | 1.7 | 4.3 | 0.00 | 0.00 | 0.00 | 97 | 1010.4 |
| 20260510095901 | 71 | 132 | 1.7 | 4.3 | 0.00 | 0.00 | 0.00 | 97 | 1010.5 |
| 20260510095629 | 71 | 144 | 1.7 | 3.5 | 0.00 | 0.00 | 0.00 | 97 | 1010.3 |
| 20260510094902 | 71 | 148 | 1.7 | 2.6 | 0.00 | 0.00 | 0.00 | 97 | 1010.4 |
| 20260510094401 | 71 | 116 | 0.9 | 1.7 | 0.00 | 0.00 | 0.00 | 96 | 1010.4 |
| 20260510093900 | 71 | 144 | 0.0 | 0.9 | 0.00 | 0.00 | 0.00 | 96 | 1010.4 |
| 20260510093401 | 71 | 144 | 0.9 | 1.7 | 0.00 | 0.00 | 0.00 | 97 | 1010.3 |
| 20260510092901 | 71 | 144 | 0.9 | 3.5 | 0.00 | 0.00 | 0.00 | 97 | 1010.3 |
| 20260510092401 | 71 | 144 | 1.7 | 3.5 | 0.00 | 0.00 | 0.00 | 97 | 1010.3 |
| 20260510091901 | 71 | 151 | 0.9 | 2.6 | 0.00 | 0.00 | 0.00 | 96 | 1010.3 |
| 20260510091401 | 71 | 132 | 1.7 | 2.6 | 0.00 | 0.00 | 0.00 | 96 | 1010.3 |
| 20260510090901 | 71 | 132 | 1.7 | 2.6 | 0.00 | 0.00 | 0.00 | 96 | 1010.3 |
| 20260510090403 | 71 | 132 | 1.7 | 3.5 | 0.00 | 0.00 | 0.00 | 96 | 1010.3 |
| 20260510090356 | 70 | 154 | 1.7 | 3.5 | 0.00 | 0.00 | 0.00 | 96 | 1010.2 |
| 20260510085403 | 70 | 180 | 0.9 | 3.5 | 0.00 | 0.00 | 0.00 | 96 | 1010.3 |
| 20260510084902 | 70 | 169 | 0.9 | 1.7 | 0.00 | 0.00 | 0.00 | 96 | 1010.3 |
| 20260510084623 | 70 | 82 | 0.0 | 0.0 | 0.00 | 0.00 | 0.00 | 96 | 1010.4 |
| 20260510084603 | 70 | 82 | 0.0 | 0.9 | 0.00 | 0.00 | 0.00 | 96 | 1010.5 |
| 20260510083403 | 70 | 82 | 0.0 | 0.0 | 0.00 | 0.00 | 0.00 | 95 | 1010.5 |
| 20260510082902 | 70 | 82 | 0.0 | 0.0 | 0.00 | 0.00 | 0.00 | 95 | 1010.5 |
| 20260510082400 | 70 | 82 | 0.0 | 0.9 | 0.00 | 0.00 | 0.00 | 95 | 1010.5 |
| 20260510081858 | 70 | 82 | 0.0 | 0.9 | 0.00 | 0.00 | 0.00 | 96 | 1010.5 |
| 20260510081357 | 70 | 82 | 0.0 | 0.0 | 0.00 | 0.00 | 0.00 | 96 | 1010.4 |
| 20260510080856 | 70 | 82 | 0.0 | 0.0 | 0.00 | 0.00 | 0.00 | 96 | 1010.5 |
| 20260510080353 | 70 | 82 | 0.0 | 0.0 | 0.00 | 0.00 | 0.00 | 96 | 1010.5 |
| 20260510075854 | 70 | 82 | 0.0 | 0.0 | 0.00 | 0.00 | 0.00 | 96 | 1010.4 |
| 20260510075619 | 70 | 82 | 0.0 | 0.9 | 0.00 | 0.00 | 0.00 | 96 | 1010.4 |
| 20260510075113 | 70 | 82 | 0.0 | 0.9 | 0.00 | 0.00 | 0.00 | 95 | 1010.5 |
| 20260510074353 | 70 | 82 | 0.0 | 0.9 | 0.00 | 0.00 | 0.00 | 96 | 1010.5 |
| 20260510073853 | 70 | 82 | 0.0 | 0.9 | 0.00 | 0.00 | 0.00 | 96 | 1010.3 |
| 20260510073353 | 70 | 82 | 0.0 | 0.9 | 0.00 | 0.00 | 0.00 | 96 | 1010.3 |
| 20260510072853 | 70 | 82 | 0.0 | 0.9 | 0.00 | 0.00 | 0.00 | 96 | 1010.3 |
| 20260510072348 | 70 | 82 | 0.9 | 1.7 | 0.00 | 0.00 | 0.00 | 96 | 1010.4 |
| 20260510071849 | 70 | 82 | 0.9 | 1.7 | 0.00 | 0.00 | 0.00 | 96 | 1010.4 |
| 20260510071349 | 70 | 82 | 0.9 | 1.7 | 0.00 | 0.00 | 0.00 | 95 | 1010.4 |
| 20260510071112 | 70 | 82 | 0.9 | 1.7 | 0.00 | 0.00 | 0.00 | 95 | 1010.5 |
| 20260510070348 | 70 | 82 | 0.9 | 1.7 | 0.00 | 0.00 | 0.00 | 95 | 1010.3 |
| 20260510070114 | 70 | 82 | 0.9 | 2.6 | 0.00 | 0.00 | 0.00 | 95 | 1010.4 |
| 20260510065347 | 70 | 82 | 1.7 | 2.6 | 0.00 | 0.00 | 0.00 | 95 | 1010.4 |
| 20260510064848 | 70 | 82 | 1.7 | 3.5 | 0.00 | 0.00 | 0.00 | 94 | 1010.5 |
| 20260510064616 | 70 | 93 | 1.7 | 3.5 | 0.00 | 0.00 | 0.00 | 94 | 1010.5 |
| 20260510063844 | 70 | 121 | 1.7 | 2.6 | 0.00 | 0.00 | 0.00 | 94 | 1010.5 |
| 20260510063343 | 70 | 138 | 1.7 | 2.6 | 0.00 | 0.00 | 0.00 | 94 | 1010.6 |
| 20260510062843 | 71 | 126 | 1.7 | 2.6 | 0.00 | 0.00 | 0.00 | 94 | 1010.7 |
| 20260510062343 | 71 | 103 | 2.6 | 3.5 | 0.00 | 0.00 | 0.00 | 93 | 1010.7 |
| 20260510061844 | 71 | 92 | 2.6 | 3.5 | 0.00 | 0.00 | 0.00 | 93 | 1010.8 |
| 20260510061343 | 71 | 131 | 1.7 | 3.5 | 0.00 | 0.00 | 0.00 | 93 | 1010.7 |
| 20260510060844 | 71 | 135 | 1.7 | 4.3 | 0.00 | 0.00 | 0.00 | 93 | 1010.8 |
| 20260510060344 | 72 | 141 | 1.7 | 4.3 | 0.00 | 0.00 | 0.00 | 93 | 1010.7 |
| 20260510055844 | 72 | 167 | 1.7 | 3.5 | 0.00 | 0.00 | 0.00 | 93 | 1010.7 |
| 20260510055339 | 72 | 130 | 0.9 | 2.6 | 0.00 | 0.00 | 0.00 | 93 | 1010.9 |
| 20260510055109 | 72 | 157 | 0.9 | 1.7 | 0.00 | 0.00 | 0.00 | 92 | 1010.8 |
| 20260510054338 | 72 | 126 | 0.9 | 2.6 | 0.00 | 0.00 | 0.00 | 92 | 1011.0 |
| 20260510053838 | 72 | 126 | 1.7 | 2.6 | 0.00 | 0.00 | 0.00 | 93 | 1010.9 |
| 20260510053338 | 72 | 126 | 1.7 | 2.6 | 0.00 | 0.00 | 0.00 | 93 | 1011.1 |
| 20260510052838 | 72 | 106 | 1.7 | 3.5 | 0.00 | 0.00 | 0.00 | 93 | 1011.1 |
| 20260510052337 | 72 | 106 | 2.6 | 3.5 | 0.00 | 0.00 | 0.00 | 93 | 1011.2 |
| 20260510051837 | 73 | 109 | 1.7 | 3.5 | 0.00 | 0.00 | 0.00 | 92 | 1011.2 |
| 20260510051336 | 73 | 84 | 2.6 | 6.1 | 0.00 | 0.00 | 0.00 | 92 | 1011.3 |
| 20260510050835 | 73 | 94 | 1.7 | 6.1 | 0.00 | 0.00 | 0.00 | 92 | 1011.3 |
| 20260510050335 | 73 | 87 | 1.7 | 5.2 | 0.00 | 0.00 | 0.00 | 92 | 1011.2 |
| 20260510045833 | 73 | 88 | 1.7 | 5.2 | 0.00 | 0.00 | 0.00 | 92 | 1011.2 |
| 20260510045334 | 73 | 71 | 2.6 | 6.1 | 0.00 | 0.00 | 0.00 | 92 | 1011.0 |
| 20260510044834 | 73 | 87 | 2.6 | 6.1 | 0.00 | 0.00 | 0.00 | 92 | 1011.1 |
| 20260510044330 | 73 | 89 | 2.6 | 5.2 | 0.00 | 0.00 | 0.00 | 91 | 1011.1 |
| 20260510043830 | 73 | 82 | 2.6 | 5.2 | 0.00 | 0.00 | 0.00 | 91 | 1011.0 |
| 20260510043330 | 73 | 78 | 2.6 | 6.1 | 0.00 | 0.00 | 0.00 | 91 | 1010.9 |
| 20260510043057 | 73 | 99 | 1.7 | 6.1 | 0.00 | 0.00 | 0.00 | 91 | 1010.9 |
| 20260510042330 | 73 | 69 | 1.7 | 3.5 | 0.00 | 0.00 | 0.00 | 92 | 1011.0 |
| 20260510042056 | 74 | 70 | 1.7 | 2.6 | 0.00 | 0.00 | 0.00 | 92 | 1010.9 |
| 20260510041330 | 74 | 57 | 2.6 | 5.2 | 0.00 | 0.00 | 0.00 | 92 | 1011.0 |
| 20260510041107 | 74 | 73 | 4.3 | 7.8 | 0.00 | 0.00 | 0.00 | 92 | 1010.9 |
| 20260510040330 | 74 | 118 | 5.2 | 7.8 | 0.00 | 0.00 | 0.00 | 92 | 1010.6 |
| 20260510040059 | 74 | 127 | 4.3 | 7.8 | 0.00 | 0.00 | 0.00 | 91 | 1010.5 |
| 20260510035330 | 74 | 137 | 3.5 | 6.1 | 0.00 | 0.00 | 0.00 | 91 | 1010.5 |
| 20260510034829 | 75 | 146 | 4.3 | 7.8 | 0.00 | 0.00 | 0.00 | 91 | 1010.5 |
| 20260510034329 | 75 | 138 | 5.2 | 8.7 | 0.00 | 0.00 | 0.00 | 91 | 1010.3 |
| 20260510033829 | 75 | 126 | 5.2 | 8.7 | 0.00 | 0.00 | 0.00 | 91 | 1010.4 |
| 20260510033330 | 75 | 111 | 4.3 | 7.8 | 0.00 | 0.00 | 0.00 | 90 | 1010.4 |
| 20260510032834 | 75 | 85 | 4.3 | 9.6 | 0.00 | 0.00 | 0.00 | 89 | 1010.4 |
| 20260510032334 | 75 | 82 | 4.3 | 9.6 | 0.00 | 0.00 | 0.00 | 89 | 1010.4 |
| 20260510031833 | 74 | 69 | 2.6 | 9.6 | 0.00 | 0.00 | 0.00 | 89 | 1010.4 |
| 20260510031333 | 74 | 73 | 0.9 | 3.5 | 0.00 | 0.00 | 0.00 | 87 | 1010.4 |
| 20260510030834 | 74 | 70 | 0.9 | 1.7 | 0.00 | 0.00 | 0.00 | 84 | 1010.2 |
| 20260510030333 | 74 | 50 | 0.9 | 3.5 | 0.00 | 0.00 | 0.00 | 81 | 1010.0 |
| 20260510025833 | 74 | 50 | 1.7 | 6.1 | 0.00 | 0.00 | 0.00 | 79 | 1009.8 |
| 20260510025334 | 75 | 88 | 2.6 | 6.1 | 0.00 | 0.00 | 0.00 | 77 | 1009.5 |
| 20260510025057 | 76 | 119 | 3.5 | 6.1 | 0.00 | 0.00 | 0.00 | 76 | 1009.1 |
| 20260510024333 | 76 | 140 | 3.5 | 6.1 | 0.00 | 0.00 | 0.00 | 75 | 1009.0 |
| 20260510023833 | 76 | 151 | 2.6 | 5.2 | 0.00 | 0.00 | 0.00 | 74 | 1009.0 |
| 20260510023559 | 76 | 173 | 2.6 | 5.2 | 0.00 | 0.00 | 0.00 | 74 | 1009.1 |
| 20260510022832 | 76 | 184 | 1.7 | 4.3 | 0.00 | 0.00 | 0.00 | 74 | 1009.1 |
| 20260510022334 | 76 | 167 | 0.9 | 3.5 | 0.00 | 0.00 | 0.00 | 74 | 1009.2 |
| 20260510021834 | 77 | 123 | 0.9 | 2.6 | 0.00 | 0.00 | 0.00 | 74 | 1009.3 |
| 20260510021556 | 77 | 123 | 1.7 | 2.6 | 0.00 | 0.00 | 0.00 | 74 | 1009.3 |
| 20260510020833 | 77 | 121 | 1.7 | 5.2 | 0.00 | 0.00 | 0.00 | 73 | 1009.1 |
| 20260510020333 | 78 | 142 | 1.7 | 5.2 | 0.00 | 0.00 | 0.00 | 72 | 1008.9 |
| 20260510015833 | 78 | 148 | 1.7 | 4.3 | 0.00 | 0.00 | 0.00 | 71 | 1008.8 |
| 20260510015325 | 79 | 167 | 2.6 | 4.3 | 0.00 | 0.00 | 0.00 | 71 | 1008.7 |
| 20260510014818 | 79 | 131 | 1.7 | 3.5 | 0.00 | 0.00 | 0.00 | 69 | 1008.6 |
| 20260510014312 | 79 | 170 | 0.9 | 3.5 | 0.00 | 0.00 | 0.00 | 68 | 1008.5 |
| 20260510014040 | 80 | 170 | 1.7 | 4.3 | 0.00 | 0.00 | 0.00 | 68 | 1008.6 |
| 20260510013305 | 80 | 180 | 1.7 | 5.2 | 0.00 | 0.00 | 0.00 | 68 | 1008.6 |
| 20260510012803 | 80 | 163 | 2.6 | 5.2 | 0.00 | 0.00 | 0.00 | 67 | 1008.3 |
| 20260510012307 | 81 | 143 | 3.5 | 7.0 | 0.00 | 0.00 | 0.00 | 66 | 1008.2 |
| 20260510011800 | 81 | 126 | 3.5 | 7.0 | 0.00 | 0.00 | 0.00 | 65 | 1008.0 |
| 20260510011301 | 82 | 153 | 3.5 | 6.1 | 0.00 | 0.00 | 0.00 | 64 | 1007.9 |
| 20260510010801 | 82 | 152 | 3.5 | 6.1 | 0.00 | 0.00 | 0.00 | 64 | 1008.0 |
| 20260510010302 | 83 | 163 | 3.5 | 7.0 | 0.00 | 0.00 | 0.00 | 63 | 1007.9 |
| 20260510010035 | 83 | 147 | 3.5 | 7.8 | 0.00 | 0.00 | 0.00 | 61 | 1008.1 |
| 20260510005301 | 84 | 176 | 3.5 | 7.8 | 0.00 | 0.00 | 0.00 | 61 | 1008.0 |
| 20260510004801 | 84 | 194 | 3.5 | 7.0 | 0.00 | 0.00 | 0.00 | 62 | 1007.9 |
| 20260510004301 | 84 | 168 | 3.5 | 7.8 | 0.00 | 0.00 | 0.00 | 63 | 1007.9 |
| 20260510004041 | 85 | 186 | 4.3 | 7.8 | 0.00 | 0.00 | 0.00 | 62 | 1007.9 |
| 20260510003301 | 85 | 175 | 3.5 | 7.8 | 0.00 | 0.00 | 0.00 | 61 | 1007.9 |
| 20260510002801 | 85 | 178 | 3.5 | 8.7 | 0.00 | 0.00 | 0.00 | 61 | 1007.8 |
| 20260510002301 | 86 | 204 | 4.3 | 9.6 | 0.00 | 0.00 | 0.00 | 60 | 1007.8 |
| 20260510001802 | 86 | 213 | 5.2 | 9.6 | 0.00 | 0.00 | 0.00 | 60 | 1007.8 |
| 20260510001523 | 87 | 162 | 6.1 | 11.3 | 0.00 | 0.00 | 0.00 | 60 | 1007.6 |
| 20260510000801 | 87 | 215 | 5.2 | 11.3 | 0.00 | 0.00 | 0.00 | 61 | 1007.6 |
| 20260510000304 | 87 | 182 | 5.2 | 11.3 | 0.00 | 0.00 | 0.00 | 61 | 1007.5 |
| 20260509235801 | 88 | 202 | 6.1 | 11.3 | 0.00 | 0.00 | 0.00 | 60 | 1007.7 |
| 20260509235301 | 88 | 170 | 5.2 | 9.6 | 0.00 | 0.00 | 0.00 | 59 | 1007.7 |
| 20260509235023 | 89 | 182 | 4.3 | 7.8 | 0.00 | 0.00 | 0.00 | 59 | 1007.8 |
| 20260509235006 | 89 | 223 | 4.3 | 8.7 | 0.00 | 0.00 | 0.00 | 59 | 1007.8 |
| 20260509233801 | 90 | 194 | 3.5 | 7.8 | 0.00 | 0.00 | 0.00 | 58 | 1007.9 |
| 20260509233301 | 91 | 161 | 3.5 | 7.8 | 0.00 | 0.00 | 0.00 | 59 | 1007.8 |
| 20260509232800 | 91 | 209 | 3.5 | 6.1 | 0.00 | 0.00 | 0.00 | 59 | 1007.8 |
| 20260509232305 | 91 | 171 | 3.5 | 7.0 | 0.00 | 0.00 | 0.00 | 56 | 1007.6 |
| 20260509231801 | 92 | 190 | 3.5 | 7.0 | 0.00 | 0.00 | 0.00 | 55 | 1007.6 |
| 20260509231526 | 93 | 171 | 2.6 | 7.0 | 0.00 | 0.00 | 0.00 | 55 | 1007.6 |
| 20260509231034 | 93 | 253 | 0.9 | 3.5 | 0.00 | 0.00 | 0.00 | 57 | 1007.5 |
| 20260509230301 | 93 | 305 | 0.9 | 2.6 | 0.00 | 0.00 | 0.00 | 56 | 1007.6 |
| 20260509225801 | 93 | 329 | 1.7 | 2.6 | 0.00 | 0.00 | 0.00 | 57 | 1007.5 |
| 20260509225528 | 93 | 348 | 0.9 | 2.6 | 0.00 | 0.00 | 0.00 | 56 | 1007.5 |
| 20260509224800 | 93 | 5 | 0.9 | 3.5 | 0.00 | 0.00 | 0.00 | 56 | 1007.6 |
| 20260509224300 | 93 | 232 | 0.9 | 3.5 | 0.00 | 0.00 | 0.00 | 57 | 1007.5 |
| 20260509224035 | 92 | 288 | 0.9 | 1.7 | 0.00 | 0.00 | 0.00 | 58 | 1007.5 |
| 20260509223301 | 92 | 306 | 0.9 | 3.5 | 0.00 | 0.00 | 0.00 | 57 | 1007.5 |
| 20260509223034 | 92 | 317 | 0.9 | 3.5 | 0.00 | 0.00 | 0.00 | 58 | 1007.5 |
| 20260509222302 | 92 | 146 | 0.9 | 2.6 | 0.00 | 0.00 | 0.00 | 59 | 1007.7 |
| 20260509221800 | 92 | 10 | 2.6 | 5.2 | 0.00 | 0.00 | 0.00 | 58 | 1007.5 |
| 20260509221301 | 92 | 333 | 2.6 | 5.2 | 0.00 | 0.00 | 0.00 | 60 | 1007.6 |
| 20260509220800 | 92 | 346 | 1.7 | 5.2 | 0.00 | 0.00 | 0.00 | 60 | 1007.7 |
| 20260509220301 | 92 | 271 | 1.7 | 5.2 | 0.00 | 0.00 | 0.00 | 60 | 1007.6 |
| 20260509215800 | 92 | 290 | 1.7 | 2.6 | 0.00 | 0.00 | 0.00 | 61 | 1007.5 |
| 20260509215531 | 92 | 279 | 1.7 | 3.5 | 0.00 | 0.00 | 0.00 | 62 | 1007.6 |
| 20260509214801 | 92 | 331 | 1.7 | 3.5 | 0.00 | 0.00 | 0.00 | 60 | 1007.6 |
| 20260509214301 | 92 | 294 | 1.7 | 3.5 | 0.00 | 0.00 | 0.00 | 64 | 1007.6 |
| 20260509213806 | 92 | 184 | 1.7 | 3.5 | 0.00 | 0.00 | 0.00 | 60 | 1007.6 |
| 20260509213534 | 91 | 189 | 1.7 | 3.5 | 0.00 | 0.00 | 0.00 | 61 | 1007.7 |
| 20260509212807 | 91 | 311 | 1.7 | 3.5 | 0.00 | 0.00 | 0.00 | 62 | 1007.7 |
| 20260509212306 | 91 | 315 | 1.7 | 3.5 | 0.00 | 0.00 | 0.00 | 61 | 1007.7 |
| 20260509211756 | 91 | 9 | 1.7 | 3.5 | 0.00 | 0.00 | 0.00 | 62 | 1007.6 |
| 20260509211250 | 91 | 327 | 1.7 | 3.5 | 0.00 | 0.00 | 0.00 | 60 | 1007.7 |
| 20260509210743 | 91 | 327 | 1.7 | 3.5 | 0.00 | 0.00 | 0.00 | 61 | 1007.7 |
| 20260509210238 | 91 | 189 | 1.7 | 3.5 | 0.00 | 0.00 | 0.00 | 60 | 1007.7 |
| 20260509205956 | 91 | 311 | 1.7 | 4.3 | 0.00 | 0.00 | 0.00 | 63 | 1007.6 |
| 20260509205226 | 91 | 282 | 1.7 | 7.0 | 0.00 | 0.00 | 0.00 | 61 | 1007.8 |
| 20260509204720 | 90 | 0 | 1.7 | 7.0 | 0.00 | 0.00 | 0.00 | 62 | 1007.7 |
| 20260509204214 | 90 | 333 | 2.6 | 6.1 | 0.00 | 0.00 | 0.00 | 61 | 1007.7 |
| 20260509203712 | 89 | 331 | 3.5 | 8.7 | 0.00 | 0.00 | 0.00 | 64 | 1007.8 |
| 20260509203213 | 90 | 355 | 2.6 | 8.7 | 0.00 | 0.00 | 0.00 | 63 | 1007.8 |
| 20260509202713 | 90 | 340 | 1.7 | 4.3 | 0.00 | 0.00 | 0.00 | 63 | 1007.9 |
| 20260509202213 | 90 | 275 | 2.6 | 7.8 | 0.00 | 0.00 | 0.00 | 62 | 1007.9 |
| 20260509201713 | 89 | 336 | 4.3 | 7.8 | 0.00 | 0.00 | 0.00 | 64 | 1008.0 |
| 20260509201213 | 89 | 282 | 4.3 | 9.6 | 0.00 | 0.00 | 0.00 | 63 | 1008.2 |
| 20260509200712 | 89 | 355 | 2.6 | 9.6 | 0.00 | 0.00 | 0.00 | 65 | 1008.1 |
| 20260509200213 | 89 | 293 | 2.6 | 7.0 | 0.00 | 0.00 | 0.00 | 64 | 1008.3 |
| 20260509195713 | 89 | 315 | 3.5 | 7.0 | 0.00 | 0.00 | 0.00 | 66 | 1008.4 |
| 20260509195213 | 89 | 317 | 1.7 | 5.2 | 0.00 | 0.00 | 0.00 | 67 | 1008.4 |
| 20260509194712 | 89 | 295 | 2.6 | 8.7 | 0.00 | 0.00 | 0.00 | 65 | 1008.4 |
| 20260509194213 | 89 | 271 | 2.6 | 8.7 | 0.00 | 0.00 | 0.00 | 67 | 1008.6 |
| 20260509193710 | 88 | 355 | 1.7 | 6.1 | 0.00 | 0.00 | 0.00 | 65 | 1008.5 |
| 20260509193703 | 88 | 342 | 1.7 | 6.1 | 0.00 | 0.00 | 0.00 | 66 | 1008.6 |
| 20260509192710 | 88 | 288 | 2.6 | 6.1 | 0.00 | 0.00 | 0.00 | 65 | 1008.6 |
| 20260509192210 | 88 | 300 | 2.6 | 6.1 | 0.00 | 0.00 | 0.00 | 65 | 1008.8 |
| 20260509191711 | 87 | 245 | 2.6 | 6.1 | 0.00 | 0.00 | 0.00 | 65 | 1008.7 |
| 20260509191212 | 88 | 355 | 3.5 | 7.0 | 0.00 | 0.00 | 0.00 | 67 | 1008.8 |
| 20260509190711 | 87 | 255 | 4.3 | 8.7 | 0.00 | 0.00 | 0.00 | 66 | 1008.8 |
| 20260509190211 | 87 | 0 | 3.5 | 8.7 | 0.00 | 0.00 | 0.00 | 67 | 1008.8 |
| 20260509185710 | 87 | 348 | 3.5 | 9.6 | 0.00 | 0.00 | 0.00 | 67 | 1008.8 |
| 20260509185207 | 87 | 355 | 3.5 | 9.6 | 0.00 | 0.00 | 0.00 | 66 | 1008.9 |
| 20260509184707 | 87 | 349 | 2.6 | 7.0 | 0.00 | 0.00 | 0.00 | 70 | 1009.0 |
| 20260509184206 | 87 | 323 | 2.6 | 5.2 | 0.00 | 0.00 | 0.00 | 70 | 1009.0 |
| 20260509183935 | 86 | 279 | 3.5 | 5.2 | 0.00 | 0.00 | 0.00 | 71 | 1009.1 |
| 20260509183206 | 86 | 330 | 3.5 | 7.8 | 0.00 | 0.00 | 0.00 | 73 | 1009.2 |
| 20260509182937 | 85 | 28 | 3.5 | 7.8 | 0.00 | 0.00 | 0.00 | 71 | 1009.2 |
| 20260509182207 | 85 | 301 | 3.5 | 8.7 | 0.00 | 0.00 | 0.00 | 72 | 1009.1 |
| 20260509181707 | 85 | 355 | 3.5 | 8.7 | 0.00 | 0.00 | 0.00 | 74 | 1009.2 |
| 20260509181207 | 85 | 269 | 2.6 | 8.7 | 0.00 | 0.00 | 0.00 | 73 | 1009.2 |
| 20260509180707 | 85 | 306 | 2.6 | 7.0 | 0.00 | 0.00 | 0.00 | 72 | 1009.2 |
| 20260509180206 | 85 | 286 | 3.5 | 7.8 | 0.00 | 0.00 | 0.00 | 73 | 1009.2 |
| 20260509175706 | 85 | 348 | 2.6 | 7.8 | 0.00 | 0.00 | 0.00 | 75 | 1009.4 |
| 20260509175437 | 85 | 342 | 2.6 | 7.0 | 0.00 | 0.00 | 0.00 | 74 | 1009.3 |
| 20260509174710 | 84 | 320 | 1.7 | 5.2 | 0.00 | 0.00 | 0.00 | 75 | 1009.4 |
| 20260509174207 | 84 | 304 | 1.7 | 5.2 | 0.00 | 0.00 | 0.00 | 75 | 1009.5 |
| 20260509173936 | 83 | 311 | 2.6 | 6.1 | 0.00 | 0.00 | 0.00 | 77 | 1009.4 |
| 20260509173206 | 83 | 284 | 1.7 | 6.1 | 0.00 | 0.00 | 0.00 | 74 | 1009.6 |
| 20260509172705 | 83 | 355 | 0.9 | 3.5 | 0.00 | 0.00 | 0.00 | 78 | 1009.6 |
| 20260509172205 | 83 | 323 | 1.7 | 3.5 | 0.00 | 0.00 | 0.00 | 78 | 1009.6 |
| 20260509171932 | 83 | 35 | 0.9 | 3.5 | 0.00 | 0.00 | 0.00 | 79 | 1009.5 |
| 20260509171439 | 82 | 265 | 0.9 | 1.7 | 0.00 | 0.00 | 0.00 | 81 | 1009.6 |
| 20260509170705 | 82 | 300 | 0.9 | 4.3 | 0.00 | 0.00 | 0.00 | 82 | 1009.4 |
| 20260509170201 | 81 | 300 | 2.6 | 7.0 | 0.00 | 0.00 | 0.00 | 81 | 1009.4 |
| 20260509165702 | 81 | 345 | 2.6 | 7.0 | 0.00 | 0.00 | 0.00 | 82 | 1009.4 |
| 20260509165201 | 80 | 0 | 0.9 | 2.6 | 0.00 | 0.00 | 0.00 | 81 | 1009.6 |
| 20260509164700 | 80 | 115 | 0.9 | 2.6 | 0.00 | 0.00 | 0.00 | 82 | 1009.7 |
| 20260509164202 | 80 | 84 | 1.7 | 3.5 | 0.00 | 0.00 | 0.00 | 81 | 1009.9 |
| 20260509163702 | 80 | 134 | 1.7 | 4.3 | 0.00 | 0.00 | 0.00 | 83 | 1009.9 |
| 20260509163205 | 79 | 114 | 2.6 | 5.2 | 0.00 | 0.00 | 0.00 | 83 | 1009.8 |
| 20260509162701 | 79 | 191 | 2.6 | 5.2 | 0.00 | 0.00 | 0.00 | 84 | 1009.8 |
| 20260509162431 | 79 | 128 | 2.6 | 6.1 | 0.00 | 0.00 | 0.00 | 84 | 1009.8 |
| 20260509161701 | 79 | 194 | 3.5 | 7.0 | 0.00 | 0.00 | 0.00 | 85 | 1009.7 |
| 20260509161201 | 78 | 155 | 4.3 | 7.8 | 0.00 | 0.00 | 0.00 | 84 | 1009.8 |
| 20260509160701 | 78 | 126 | 3.5 | 7.8 | 0.00 | 0.00 | 0.00 | 85 | 1009.9 |
| 20260509160202 | 78 | 148 | 4.3 | 7.0 | 0.00 | 0.00 | 0.00 | 85 | 1009.6 |
| 20260509155701 | 78 | 157 | 5.2 | 8.7 | 0.00 | 0.00 | 0.00 | 85 | 1009.7 |
| 20260509155202 | 78 | 157 | 6.1 | 9.6 | 0.00 | 0.00 | 0.00 | 85 | 1009.7 |
| 20260509154700 | 78 | 121 | 4.3 | 9.6 | 0.00 | 0.00 | 0.00 | 86 | 1009.6 |
| 20260509154201 | 78 | 128 | 4.3 | 7.8 | 0.00 | 0.00 | 0.00 | 87 | 1009.7 |
| 20260509153935 | 77 | 154 | 4.3 | 7.8 | 0.00 | 0.00 | 0.00 | 89 | 1009.6 |
| 20260509153203 | 77 | 149 | 4.3 | 7.0 | 0.00 | 0.00 | 0.00 | 90 | 1009.4 |
| 20260509153152 | 77 | 109 | 5.2 | 8.7 | 0.00 | 0.00 | 0.00 | 91 | 1009.2 |
| 20260509152203 | 77 | 128 | 6.1 | 10.4 | 0.00 | 0.00 | 0.00 | 91 | 1009.0 |
| 20260509151702 | 77 | 133 | 5.2 | 10.4 | 0.00 | 0.00 | 0.00 | 92 | 1008.8 |
| 20260509151201 | 76 | 115 | 5.2 | 7.0 | 0.00 | 0.00 | 0.00 | 92 | 1008.9 |
| 20260509150701 | 76 | 103 | 3.5 | 7.0 | 0.00 | 0.00 | 0.00 | 92 | 1009.1 |
| 20260509150204 | 76 | 113 | 1.7 | 5.2 | 0.00 | 0.00 | 0.00 | 93 | 1009.7 |
| 20260509145704 | 76 | 90 | 1.7 | 3.5 | 0.00 | 0.00 | 0.00 | 94 | 1009.9 |
| 20260509145201 | 76 | 113 | 1.7 | 3.5 | 0.00 | 0.00 | 0.00 | 94 | 1010.0 |
| 20260509144701 | 75 | 119 | 1.7 | 3.5 | 0.00 | 0.00 | 0.00 | 95 | 1010.0 |
| 20260509144201 | 75 | 109 | 2.6 | 5.2 | 0.00 | 0.00 | 0.00 | 95 | 1009.9 |
| 20260509143701 | 75 | 119 | 3.5 | 7.0 | 0.00 | 0.00 | 0.00 | 96 | 1010.2 |
| 20260509143201 | 75 | 94 | 2.6 | 7.0 | 0.00 | 0.00 | 0.00 | 96 | 1009.8 |
| 20260509142701 | 75 | 90 | 0.9 | 4.3 | 0.00 | 0.00 | 0.00 | 97 | 1009.9 |
| 20260509142202 | 74 | 71 | 0.9 | 2.6 | 0.00 | 0.00 | 0.00 | 97 | 1009.7 |
| 20260509141657 | 74 | 71 | 1.7 | 2.6 | 0.00 | 0.00 | 0.00 | 97 | 1009.7 |
| 20260509141151 | 74 | 107 | 1.7 | 2.6 | 0.00 | 0.00 | 0.00 | 97 | 1009.9 |
| 20260509140645 | 74 | 336 | 0.9 | 2.6 | 0.00 | 0.00 | 0.00 | 97 | 1009.9 |
| 20260509140138 | 74 | 355 | 1.7 | 7.0 | 0.00 | 0.00 | 0.00 | 97 | 1009.2 |
| 20260509135633 | 74 | 355 | 2.6 | 7.0 | 0.00 | 0.00 | 0.00 | 98 | 1009.0 |
| 20260509135131 | 74 | 246 | 4.3 | 18.2 | 0.00 | 0.00 | 0.00 | 98 | 1009.2 |
| 20260509134631 | 74 | 355 | 7.0 | 18.2 | 0.00 | 0.00 | 0.00 | 98 | 1008.8 |
| 20260509134131 | 74 | 323 | 6.1 | 12.2 | 0.00 | 0.00 | 0.00 | 98 | 1008.3 |
| 20260509133632 | 74 | 0 | 7.0 | 14.8 | 0.00 | 0.00 | 0.00 | 98 | 1008.4 |
| 20260509133131 | 74 | 143 | 8.7 | 14.8 | 0.00 | 0.00 | 0.00 | 98 | 1007.7 |
| 20260509132631 | 74 | 146 | 8.7 | 15.6 | 0.00 | 0.01 | 0.00 | 98 | 1007.7 |
| 20260509132130 | 74 | 155 | 8.7 | 15.6 | 0.00 | 0.01 | 0.00 | 98 | 1007.8 |
| 20260509131630 | 73 | 125 | 6.1 | 13.0 | 0.00 | 0.01 | 0.00 | 98 | 1008.0 |
| 20260509131130 | 73 | 123 | 3.5 | 7.0 | 0.00 | 0.01 | 0.00 | 98 | 1008.9 |